星链-33867 (STARLINK-33867)

导读

STARLINK-33867是美国SpaceX星链计划中的卫星,于2025年5月2日发射升空,属于星链星座组网卫星。星链系统旨在为全球提供高速低延迟互联网接入服务,该卫星入轨后将进一步扩充星链星座规模,助力提升全球覆盖范围与服务容量,延续SpaceX大规模部署低轨互联网星座的进程。

基本信息
目录编号:
63795
目录名称:
STARLINK-33867
国际标识:
2025-091W
轨道中心:
EARTH
卫星名称:
星链-33867
卫星全名:
星链-33867 (STARLINK-33867)
卫星状态:
在轨 (已飞行501 天)
发射日期:
2025-05-02 UTC
国别 :
美国 (US)
星等 :
--
该卫星已列入 空间交会检测服务 Space Conjunction Data Service (SCDS) ,当前飞行风险评估等级: 高风险
轨道信息
数据来源 国际轨道数据
星历时间: 2026-09-14T19:35:06+0800
13小时前
查看轨道信息
半长轴: 6861.167km
偏心率: 0.0002843
轨道倾角: 43.004°
近地点辐角 274.531°
升交点赤经 66.491°
平近点角 85.522°
近地点: 481.079km
远地点: 484.981km
周期: 94.266分钟
每日圈数: 15.275867
详细信息
固有亮度:
5
最大亮度:
2.5
卫星平台:
Starlink V1.0
覆盖范围:
全球
运营商:
太空探索技术公司
运营商所在国:
美国
制造商(研发单位):
太空探索技术公司
制造商所在国:
美国
使用方式:
暂无
卫星简介
Starlink 计划是 SpaceX 推出的全球卫星互联网项目,通过发射低轨道卫星,为全球尤其是偏远地区提供高速、低延迟的互联网服务。自 2019 年起,Starlink 已部署数千颗卫星,旨在缩小全球数字鸿沟,推动互联网普及。该项目还为军事、航空等行业提供通信支持,带来广泛经济效益。
2D轨道图
3D轨道图
轨道高度分析图
轨道倾角分析图
轨道综合分析图
查看轨道综合分析图
交会数据列表
事件ID 空间交会对象 最接近时刻(TCA) 交会距离 交会风险概率(CRP) 交会风险指数(CRI) 操作
CDM_260910-202105-933106-379521
2026-09-10T
20:21:20+0000
0.265 km
中距离
5.02251E-4 高风险 0.89
CDM_260916-142805-820806-379521
2026-09-16T
14:28:21+0000
0.392 km
远距离
2.704185E-4 高风险 0.84
CDM_260909-224805-561606-379521
2026-09-09T
22:48:46+0000
0.371 km
远距离
2.146951E-4 高风险 0.82
CDM_260917-142505-561606-379521
2026-09-17T
14:25:03+0000
0.728 km
远距离
3.708159E-5 中风险 0.66
CDM_260910-060505-989906-379521
2026-09-10T
06:05:39+0000
0.782 km
远距离
3.348125E-5 中风险 0.65
CDM_260910-184706-379506-795121
2026-09-10T
18:47:48+0000
0.899 km
远距离
2.905704E-5 中风险 0.64
CDM_260910-081106-302306-379521
2026-09-10T
08:11:37+0000
0.871 km
远距离
2.420558E-5 中风险 0.63
CDM_260917-030005-933106-379521
2026-09-17T
03:00:24+0000
0.959 km
远距离
2.312484E-5 中风险 0.62
CDM_260916-203505-989906-379521
2026-09-16T
20:35:26+0000
0.916 km
远距离
1.980168E-5 中风险 0.61
CDM_260910-210905-820806-379522
2026-09-10T
21:09:37+0000
1.075 km
极远距离
1.583459E-5 中风险 0.59
与全量物体交会距离演化趋势 订阅飞行安全评估服务
与全量物体交会风险概率演化趋势 订阅飞行安全评估服务